When you browse on this site, cookies collect data to enhance your experience and personalize the content and advertising you see.
Visit our Privacy Policy to learn more. By continuing to use the site, you agree to this use of cookies and data.

Hourly Weather Rosocha

Today, 5 July, Sunday

Time Temperature Precipitation Wind Pressure Humidity
00:00 +18°C° 0 mm 3 mps 747 mmHg 81%
01:00 +18°C° 0 mm 4 mps 747 mmHg 74%
02:00 +18°C° 0 mm 3 mps 747 mmHg 77%
03:00 +18°C° 0 mm 3 mps 746 mmHg 80%
04:00 +18°C° 0 mm 2 mps 746 mmHg 83%
05:00 +18°C° 0.3 mm 2 mps 746 mmHg 87%
06:00 +17°C° 0.3 mm 2 mps 746 mmHg 90%
07:00 +17°C° 0 mm 2 mps 746 mmHg 95%
08:00 +19°C° 0 mm 3 mps 746 mmHg 88%
09:00 +21°C° 0 mm 4 mps 746 mmHg 81%
10:00 +22°C° 0 mm 5 mps 746 mmHg 74%
11:00 +23°C° 0.1 mm 5 mps 746 mmHg 72%
12:00 +24°C° 0.1 mm 6 mps 746 mmHg 69%
13:00 +26°C° 0 mm 5 mps 745 mmHg 62%
14:00 +26°C° 0.2 mm 5 mps 745 mmHg 66%
15:00 +26°C° 0.2 mm 5 mps 745 mmHg 70%
16:00 +26°C° 0.2 mm 5 mps 745 mmHg 73%
17:00 +25°C° 0.1 mm 5 mps 744 mmHg 77%
18:00 +23°C° 0.1 mm 4 mps 744 mmHg 81%
19:00 +23°C° 0.1 mm 4 mps 744 mmHg 84%
20:00 +22°C° 0 mm 3 mps 744 mmHg 86%
21:00 +21°C° 0 mm 3 mps 744 mmHg 87%
22:00 +21°C° 0 mm 3 mps 744 mmHg 88%
23:00 +21°C° 0 mm 3 mps 744 mmHg 89%

Tomorrow, 6 July, Monday

Time Temperature Precipitation Wind Pressure Humidity
00:00 +20°C° 0 mm 3 mps 744 mmHg 89%
01:00 +20°C° 0 mm 3 mps 744 mmHg 89%
02:00 +20°C° 0 mm 3 mps 744 mmHg 90%
03:00 +19°C° 0 mm 3 mps 744 mmHg 91%
04:00 +19°C° 0 mm 3 mps 743 mmHg 92%
05:00 +19°C° 0.1 mm 3 mps 743 mmHg 91%
06:00 +19°C° 0.1 mm 3 mps 743 mmHg 90%
07:00 +19°C° 0.1 mm 3 mps 743 mmHg 88%
08:00 +19°C° 0 mm 3 mps 743 mmHg 86%
09:00 +19°C° 0 mm 3 mps 743 mmHg 84%
10:00 +19°C° 0 mm 4 mps 743 mmHg 82%
11:00 +20°C° 0 mm 4 mps 743 mmHg 78%
12:00 +21°C° 0 mm 5 mps 743 mmHg 73%
13:00 +21°C° 0 mm 5 mps 743 mmHg 68%
14:00 +21°C° 0.1 mm 5 mps 743 mmHg 70%
15:00 +20°C° 0.1 mm 4 mps 743 mmHg 71%
16:00 +20°C° 0.1 mm 4 mps 743 mmHg 73%
17:00 +19°C° 0 mm 4 mps 744 mmHg 73%
18:00 +18°C° 0 mm 3 mps 744 mmHg 73%
19:00 +18°C° 0 mm 3 mps 744 mmHg 73%
20:00 +16°C° 0 mm 3 mps 744 mmHg 75%
21:00 +15°C° 0 mm 2 mps 745 mmHg 77%
22:00 +13°C° 0 mm 2 mps 745 mmHg 80%
23:00 +12°C° 0 mm 3 mps 745 mmHg 79%

Day after tomorrow, 7 July, Tuesday

Time Temperature Precipitation Wind Pressure Humidity
00:00 +12°C° 0 mm 3 mps 746 mmHg 78%
01:00 +12°C° 0 mm 3 mps 746 mmHg 78%
02:00 +12°C° 0 mm 3 mps 746 mmHg 80%
03:00 +11°C° 0 mm 3 mps 746 mmHg 83%
04:00 +11°C° 0 mm 3 mps 746 mmHg 85%
05:00 +12°C° 0 mm 3 mps 746 mmHg 81%
06:00 +13°C° 0 mm 4 mps 747 mmHg 78%
07:00 +14°C° 0 mm 4 mps 747 mmHg 74%
08:00 +15°C° 0 mm 4 mps 747 mmHg 69%
09:00 +16°C° 0 mm 5 mps 748 mmHg 64%
10:00 +17°C° 0 mm 5 mps 748 mmHg 59%
11:00 +17°C° 0.1 mm 5 mps 748 mmHg 59%
12:00 +17°C° 0.1 mm 5 mps 748 mmHg 59%
13:00 +17°C° 0.1 mm 5 mps 748 mmHg 59%
14:00 +17°C° 0.1 mm 5 mps 748 mmHg 60%
15:00 +16°C° 0.1 mm 5 mps 748 mmHg 61%
16:00 +16°C° 0.1 mm 5 mps 748 mmHg 62%
17:00 +15°C° 0 mm 4 mps 748 mmHg 66%
18:00 +16°C° 0 mm 3 mps 749 mmHg 70%
19:00 +15°C° 0 mm 2 mps 749 mmHg 74%
20:00 +14°C° 0 mm 2 mps 749 mmHg 78%
21:00 +13°C° 0 mm 2 mps 749 mmHg 82%
22:00 +12°C° 0 mm 2 mps 749 mmHg 86%
23:00 +10°C° 0 mm 2 mps 749 mmHg 88%

8 July, Wednesday

Time Temperature Precipitation Wind Pressure Humidity
00:00 +9°C° 0 mm 2 mps 749 mmHg 90%
01:00 +9°C° 0 mm 2 mps 749 mmHg 92%
02:00 +9°C° 0 mm 2 mps 749 mmHg 92%
03:00 +9°C° 0 mm 2 mps 749 mmHg 92%
04:00 +9°C° 0 mm 2 mps 749 mmHg 92%
05:00 +10°C° 0 mm 3 mps 749 mmHg 85%
06:00 +12°C° 0 mm 3 mps 748 mmHg 77%
07:00 +14°C° 0 mm 4 mps 748 mmHg 70%
08:00 +15°C° 0.1 mm 4 mps 748 mmHg 66%
09:00 +16°C° 0.1 mm 5 mps 748 mmHg 62%
10:00 +17°C° 0.1 mm 6 mps 748 mmHg 59%
11:00 +15°C° 0.2 mm 5 mps 748 mmHg 68%
12:00 +14°C° 0.2 mm 5 mps 747 mmHg 77%
13:00 +12°C° 0.2 mm 4 mps 747 mmHg 87%
14:00 +13°C° 0 mm 4 mps 747 mmHg 84%
15:00 +14°C° 0 mm 4 mps 747 mmHg 81%
16:00 +14°C° 0 mm 4 mps 747 mmHg 78%
17:00 +14°C° 0.2 mm 4 mps 747 mmHg 82%
18:00 +14°C° 0.2 mm 3 mps 747 mmHg 86%
19:00 +13°C° 0.2 mm 3 mps 747 mmHg 90%
20:00 +12°C° 0 mm 3 mps 748 mmHg 92%
21:00 +12°C° 0 mm 2 mps 748 mmHg 94%
22:00 +10°C° 0 mm 2 mps 748 mmHg 95%
23:00 +10°C° 0 mm 2 mps 748 mmHg 95%

9 July, Thursday

Time Temperature Precipitation Wind Pressure Humidity
00:00 +9°C° 0 mm 2 mps 748 mmHg 94%
01:00 +9°C° 0 mm 3 mps 748 mmHg 94%
02:00 +9°C° 0 mm 3 mps 749 mmHg 94%
03:00 +8°C° 0 mm 3 mps 749 mmHg 94%
04:00 +8°C° 0 mm 3 mps 749 mmHg 94%
05:00 +10°C° 0 mm 3 mps 749 mmHg 90%
06:00 +12°C° 0 mm 4 mps 750 mmHg 86%
07:00 +13°C° 0 mm 4 mps 750 mmHg 81%
08:00 +15°C° 0 mm 4 mps 750 mmHg 74%
09:00 +17°C° 0 mm 4 mps 751 mmHg 66%
10:00 +19°C° 0 mm 4 mps 751 mmHg 58%
11:00 +20°C° 0.1 mm 4 mps 751 mmHg 56%
12:00 +20°C° 0.1 mm 4 mps 751 mmHg 54%
13:00 +21°C° 0.1 mm 4 mps 751 mmHg 52%
14:00 +20°C° 0.1 mm 4 mps 751 mmHg 55%
15:00 +20°C° 0.1 mm 4 mps 751 mmHg 57%
16:00 +20°C° 0.1 mm 3 mps 751 mmHg 60%
17:00 +19°C° 0.1 mm 2 mps 751 mmHg 66%
18:00 +18°C° 0.1 mm 2 mps 751 mmHg 73%
19:00 +18°C° 0.1 mm 1 mps 751 mmHg 80%
20:00 +15°C° 0 mm 1 mps 751 mmHg 83%
21:00 +14°C° 0 mm 1 mps 751 mmHg 85%
22:00 +12°C° 0 mm 1 mps 751 mmHg 88%
23:00 +12°C° 0 mm 1 mps 751 mmHg 89%

10 July, Friday

Time Temperature Precipitation Wind Pressure Humidity
00:00 +12°C° 0 mm 1 mps 751 mmHg 89%
01:00 +11°C° 0 mm 1 mps 751 mmHg 90%
02:00 +11°C° 0 mm 1 mps 751 mmHg 90%
03:00 +10°C° 0 mm 2 mps 750 mmHg 90%
04:00 +10°C° 0 mm 2 mps 750 mmHg 90%
05:00 +13°C° 0 mm 2 mps 750 mmHg 85%
06:00 +15°C° 0 mm 2 mps 750 mmHg 79%
07:00 +17°C° 0 mm 3 mps 750 mmHg 74%
08:00 +18°C° 0 mm 3 mps 750 mmHg 68%
09:00 +20°C° 0 mm 3 mps 750 mmHg 62%
10:00 +22°C° 0 mm 4 mps 750 mmHg 56%
11:00 +22°C° 0 mm 4 mps 749 mmHg 57%
12:00 +23°C° 0 mm 4 mps 749 mmHg 57%
13:00 +25°C° 0 mm 4 mps 748 mmHg 57%
14:00 +25°C° 0.1 mm 4 mps 748 mmHg 60%
15:00 +25°C° 0.1 mm 4 mps 748 mmHg 62%
16:00 +25°C° 0.1 mm 4 mps 747 mmHg 65%
17:00 +23°C° 0.6 mm 4 mps 747 mmHg 73%
18:00 +22°C° 0.6 mm 3 mps 746 mmHg 80%
19:00 +20°C° 0.6 mm 3 mps 746 mmHg 88%
20:00 +20°C° 0.2 mm 3 mps 746 mmHg 90%
21:00 +19°C° 0.2 mm 3 mps 746 mmHg 92%
22:00 +18°C° 0.2 mm 3 mps 745 mmHg 94%
23:00 +18°C° 0.4 mm 3 mps 745 mmHg 95%
Show more